This demonstration page uses our WeatherBlox Daily Observations layout. Learn more.

Left ArrowRight Arrow

34.16533, -84.80231

Hourly Observations for September 17, 2017

Temp ( °F °C ) Dew Point ( °F °C ) Humidity (%) Winds ( mph kmh ) Pressure ( in mb ) Visibility ( mi km ) Precip ( " mm )
12:53 am 00:53 Clear with Mist and Fog 68 20 68 20 100 100 Calm 30.08 1019 5 8 0.00 0.00
1:53 am 01:53 Clear with Mist and Fog 67 19.4 67 19.4 100 100 Calm 30.07 1018 6 10 0.00 0.00
2:53 am 02:53 Clear with Mist and Fog 67 19.4 67 19.4 100 100 Calm 30.06 1018 5 8 0.00 0.00
3:30 am 03:30 Partly Cloudy with Mist and Fog 65 18.3 65 18.3 100 100 Calm 30.06 1018 4 6 0.00 0.00
3:37 am 03:37 Mostly Cloudy with Mist and Fog 65 18.3 65 18.3 100 100 Calm 30.06 1018 5 8 0.00 0.00
3:53 am 03:53 Cloudy with Mist and Fog 65 18.3 65 18.3 100 100 Calm 30.06 1018 4 6 0.00 0.00
3:58 am 03:58 Cloudy with Mist and Fog 65 18.3 65 18.3 100 100 Calm 30.06 1018 2 2 0.00 0.00
4:07 am 04:07 Mostly Cloudy with Fog 66 18.9 66 18.9 100 100 Calm 30.06 1018 1 1 0.00 0.00
4:33 am 04:33 Mostly Cloudy with Mist and Fog 64 17.8 64 17.8 100 100 Calm 30.06 1018 1 2 0.00 0.00
4:42 am 04:42 Mostly Cloudy with Mist and Fog 64 17.8 64 17.8 100 100 Calm 30.06 1018 3 5 0.00 0.00
4:53 am 04:53 Partly Cloudy with Mist and Fog 64 17.8 64 17.8 100 100 Calm 30.06 1018 5 8 0.00 0.00
5:33 am 05:33 Mostly Cloudy with Mist and Fog 65 18.3 65 18.3 100 100 Calm 30.06 1018 3 4 0.00 0.00
5:37 am 05:37 Mostly Cloudy with Mist and Fog 65 18.3 65 18.3 100 100 Calm 30.06 1018 1 1 0.00 0.00
5:49 am 05:49 Mostly Cloudy with Fog 64 18 64 18 100 100 Calm 30.06 1018 0 0 0.00 0.00
5:53 am 05:53 Mostly Cloudy with Fog 65 18.3 65 18.3 100 100 Calm 30.07 1018 0 0 0.00 0.00
6:01 am 06:01 Mostly Cloudy with Fog 65 18.3 65 18.3 100 100 Calm 30.09 1019 1 1 0.00 0.00
6:10 am 06:10 Mostly Cloudy with Fog 65 18.3 65 18.3 100 100 Calm 30.09 1019 0 0 0.00 0.00
6:35 am 06:35 Mostly Cloudy with Mist and Fog 64 17.8 64 17.8 100 100 Calm 30.09 1019 1 2 0.00 0.00
6:53 am 06:53 Mostly Cloudy with Fog 64 17.8 64 17.8 100 100 Calm 30.09 1019 1 1 0.00 0.00
7:38 am 07:38 Mostly Cloudy with Fog 65 18.3 65 18.3 100 100 Calm 30.12 1020 0 0 0.00 0.00
7:53 am 07:53 Mostly Cloudy with Fog 64 17.8 64 17.8 100 100 Calm 30.11 1020 0 0 0.00 0.00
8:39 am 08:39 Cloudy with Mist and Fog 66 18.9 66 18.9 100 100 Calm 30.12 1020 1 1 0.00 0.00
8:48 am 08:48 Cloudy with Mist and Fog 66 19 66 19 100 100 Calm 30.12 1020 1 1 0.00 0.00
8:53 am 08:53 Mostly Cloudy with Mist and Fog 66 18.9 66 18.9 100 100 Calm 30.12 1020 1 2 0.00 0.00
9:20 am 09:20 Mostly Cloudy with Mist and Fog 67 19.4 67 19.4 100 100 Calm 30.12 1020 3 4 0.00 0.00
9:30 am 09:30 Cloudy with Mist and Fog 68 20 68 20 100 100 Calm 30.12 1020 4 6 0.00 0.00
9:53 am 09:53 Mostly Cloudy 71 21.7 70 21.1 96 96 Calm 30.12 1020 7 11 0.00 0.00
10:53 am 10:53 Mostly Sunny 76 24.4 70 21.1 82 82 N 3 6 30.13 1020 10 16 0.00 0.00
11:53 am 11:53 Mostly Sunny 81 27.2 68 20 65 65 Calm 30.12 1020 10 16 0.00 0.00
12:53 pm 12:53 Sunny 84 28.9 67 19.4 57 57 VRB 3 6 30.10 1019 10 16 0.00 0.00
1:53 pm 13:53 Sunny 86 30 67 19.4 53 53 Calm 30.08 1019 10 16 0.00 0.00
2:53 pm 14:53 Mostly Sunny 87 30.6 66 18.9 50 50 N 6 9 30.05 1018 10 16 0.00 0.00
3:53 pm 15:53 Sunny 87 30.6 64 17.8 46 46 VRB 5 7 30.04 1017 10 16 0.00 0.00
4:53 pm 16:53 Sunny 87 30.6 62 16.7 43 43 N 9 15 30.03 1017 10 16 0.00 0.00
5:53 pm 17:53 Sunny 86 30 63 17.2 46 46 NNE 7 11 30.02 1017 10 16 0.00 0.00
6:53 pm 18:53 Sunny 80 26.7 65 18.3 60 60 Calm 30.02 1017 10 16 0.00 0.00
7:53 pm 19:53 Clear 70 21.1 69 20.6 97 97 Calm 30.03 1017 10 16 0.00 0.00
8:53 pm 20:53 Clear 68 20 67 19.4 96 96 Calm 30.04 1017 10 16 0.00 0.00
9:53 pm 21:53 Clear 68 20 67 19.4 96 96 Calm 30.05 1018 10 16 0.00 0.00
10:53 pm 22:53 Clear 66 18.9 66 18.9 100 100 Calm 30.05 1018 10 16 0.00 0.00
11:53 pm 23:53 Partly Cloudy 65 18.3 65 18.3 100 100 Calm 30.05 1018 9 14 0.00 0.00

Powered by AerisWeather